Regional Weather Roundup
Issued by NWS

Home | Current Version | Previous Version | Graphics & Text | Print | Product List | Glossary On
Versions: 1 2 3 4 5 6 7 8 9 10 11 12 13 14 15 16 17 18 19 20 21 22 23 24 25 26 27 28 29 30 31 32 33 34 35 36 37 38 39 40 41 42 43 44 45 46 47 48 49 50
000
ASUS43 KBIS 241010
RWRND

NORTH DAKOTA REGIONAL WEATHER ROUNDUP
NATIONAL WEATHER SERVICE BISMARCK ND
500 AM CDT THU JUL 24 2014

NOTE: "FAIR" INDICATES FEW OR NO CLOUDS BELOW 12,000 FEET WITH NO
SIGNIFICANT WEATHER AND/OR OBSTRUCTIONS TO VISIBILITY.


NDZ001>003-009>011-017-241100-
NORTHWEST NORTH DAKOTA

CITY           SKY/WX    TMP DP  RH WIND       PRES   REMARKS
WILLISTON      MOCLDY    70  56  61 SE15G23   29.82F
MINOT          MOCLDY    63  60  90 E12       29.97F
MINOT AFB      MOCLDY    63  63  99 SE15      29.96F
$$

NDZ018>021-031>035-040>046-241100-
SOUTHWEST NORTH DAKOTA

CITY           SKY/WX    TMP DP  RH WIND       PRES   REMARKS
BISMARCK       MOCLDY    66  57  72 SE13      29.98F
DICKINSON      CLEAR     63  56  78 SE18      29.87F
GARRISON         N/A     65  58  78 SE10      29.96F
HETTINGER ARPT MOCLDY    65  56  72 SE20G28   29.90F
$$

NDZ004>008-012>016-024-026-027-054-241100-
NORTHEAST NORTH DAKOTA

CITY           SKY/WX    TMP DP  RH WIND       PRES   REMARKS
GRAND FORKS    MOCLDY    60  57  89 SE5       30.10F
GRND FRKS AFB  MOCLDY    59  59  99 SE5       30.11F
DEVILS LAKE    MOCLDY    64  55  72 SE15      30.06F
$$

NDZ022-023-025-028>030-036>039-047>053-241100-
SOUTHEAST NORTH DAKOTA

CITY           SKY/WX    TMP DP  RH WIND       PRES   REMARKS
FARGO          MOCLDY    62  58  86 SE6       30.11F
JAMESTOWN      PTCLDY    62  58  86 SE9       30.08F
$$



USA.gov is the U.S. government's official web portal to all federal, state and local government web resources and services.